| time (UTC) | temp F | wind direction | speed MPH | gust MPH | rain 1hr in | rain 24hr in | rain mn in | humidity % | barometer mb |
| 20260905224518 | 66 | 0 | 1.0 | 3.0 | 0.00 | 0.00 | 0.00 | 72 | 1018.1 |
| 20260905223537 | 66 | 0 | 2.0 | 5.0 | 0.00 | 0.00 | 0.00 | 72 | 1018.0 |
| 20260905222517 | 66 | 0 | 2.0 | 5.0 | 0.00 | 0.00 | 0.00 | 71 | 1018.1 |
| 20260905221517 | 66 | 0 | 2.0 | 8.0 | 0.00 | 0.00 | 0.00 | 71 | 1018.0 |
| 20260905220517 | 67 | 0 | 2.0 | 6.0 | 0.00 | 0.00 | 0.00 | 71 | 1018.0 |
| 20260905215517 | 67 | 0 | 2.0 | 8.0 | 0.00 | 0.00 | 0.00 | 71 | 1018.2 |
| 20260905214517 | 67 | 0 | 3.0 | 8.0 | 0.00 | 0.00 | 0.00 | 70 | 1018.3 |
| 20260905213517 | 67 | 0 | 3.0 | 6.0 | 0.00 | 0.00 | 0.00 | 71 | 1018.5 |
| 20260905212537 | 67 | 0 | 2.0 | 6.0 | 0.00 | 0.00 | 0.00 | 71 | 1018.5 |
| 20260905211537 | 67 | 0 | 4.0 | 6.0 | 0.00 | 0.00 | 0.00 | 70 | 1018.6 |
| 20260905210517 | 68 | 0 | 3.0 | 6.0 | 0.00 | 0.00 | 0.00 | 70 | 1018.6 |
| 20260905205537 | 68 | 0 | 3.0 | 6.0 | 0.00 | 0.00 | 0.00 | 70 | 1018.6 |
| 20260905204517 | 68 | 0 | 4.0 | 9.0 | 0.00 | 0.00 | 0.00 | 69 | 1018.6 |
| 20260905203517 | 68 | 0 | 5.0 | 9.0 | 0.00 | 0.00 | 0.00 | 69 | 1018.5 |
| 20260905202517 | 68 | 0 | 4.0 | 8.0 | 0.00 | 0.00 | 0.00 | 69 | 1018.5 |
| 20260905201517 | 68 | 0 | 5.0 | 10.0 | 0.00 | 0.00 | 0.00 | 68 | 1018.6 |
| 20260905200517 | 69 | 0 | 3.0 | 6.0 | 0.00 | 0.00 | 0.00 | 68 | 1018.8 |
| 20260905195517 | 69 | 0 | 2.0 | 6.0 | 0.00 | 0.00 | 0.00 | 68 | 1018.7 |
| 20260905194517 | 68 | 0 | 4.0 | 8.0 | 0.00 | 0.00 | 0.00 | 69 | 1018.6 |
| 20260905193517 | 68 | 0 | 3.0 | 8.0 | 0.00 | 0.00 | 0.00 | 68 | 1018.9 |
| 20260905192517 | 68 | 0 | 4.0 | 8.0 | 0.00 | 0.00 | 0.00 | 69 | 1019.3 |
| 20260905191517 | 68 | 0 | 4.0 | 10.0 | 0.00 | 0.00 | 0.00 | 68 | 1019.4 |
| 20260905190517 | 68 | 0 | 3.0 | 8.0 | 0.00 | 0.00 | 0.00 | 68 | 1019.6 |
| 20260905185517 | 68 | 0 | 4.0 | 9.0 | 0.00 | 0.00 | 0.00 | 68 | 1019.7 |
| 20260905184517 | 68 | 0 | 2.0 | 6.0 | 0.00 | 0.00 | 0.00 | 70 | 1019.8 |
| 20260905183517 | 68 | 0 | 3.0 | 9.0 | 0.00 | 0.00 | 0.00 | 69 | 1019.5 |
| 20260905182517 | 68 | 0 | 3.0 | 8.0 | 0.00 | 0.00 | 0.00 | 70 | 1019.5 |
| 20260905181517 | 67 | 0 | 4.0 | 9.0 | 0.00 | 0.00 | 0.00 | 70 | 1019.4 |
| 20260905180517 | 67 | 0 | 3.0 | 6.0 | 0.00 | 0.00 | 0.00 | 72 | 1019.3 |
| 20260905175517 | 67 | 0 | 4.0 | 9.0 | 0.00 | 0.00 | 0.00 | 70 | 1019.2 |
| 20260905174517 | 68 | 0 | 3.0 | 9.0 | 0.00 | 0.00 | 0.00 | 70 | 1019.7 |
| 20260905173517 | 67 | 0 | 4.0 | 9.0 | 0.00 | 0.00 | 0.00 | 71 | 1019.4 |
| 20260905172517 | 67 | 0 | 3.0 | 8.0 | 0.00 | 0.00 | 0.00 | 71 | 1019.3 |
| 20260905171517 | 67 | 0 | 3.0 | 9.0 | 0.00 | 0.00 | 0.00 | 69 | 1019.6 |
| 20260905170517 | 67 | 0 | 4.0 | 10.0 | 0.00 | 0.00 | 0.00 | 69 | 1019.6 |
| 20260905165517 | 67 | 0 | 3.0 | 6.0 | 0.00 | 0.00 | 0.00 | 69 | 1019.6 |
| 20260905164517 | 66 | 0 | 2.0 | 9.0 | 0.00 | 0.00 | 0.00 | 71 | 1019.7 |
| 20260905163517 | 66 | 0 | 2.0 | 8.0 | 0.00 | 0.00 | 0.00 | 70 | 1019.5 |
| 20260905162516 | 66 | 0 | 4.0 | 11.0 | 0.00 | 0.00 | 0.00 | 69 | 1019.5 |
| 20260905161516 | 67 | 0 | 4.0 | 8.0 | 0.00 | 0.00 | 0.00 | 68 | 1019.5 |
| 20260905160516 | 66 | 0 | 2.0 | 6.0 | 0.00 | 0.00 | 0.00 | 69 | 1019.6 |
| 20260905155516 | 66 | 0 | 2.0 | 6.0 | 0.00 | 0.00 | 0.00 | 70 | 1019.7 |
| 20260905154537 | 65 | 0 | 3.0 | 9.0 | 0.00 | 0.00 | 0.00 | 70 | 1019.4 |
| 20260905153516 | 65 | 0 | 2.0 | 8.0 | 0.00 | 0.00 | 0.00 | 70 | 1019.5 |
| 20260905152516 | 65 | 0 | 1.0 | 5.0 | 0.00 | 0.00 | 0.00 | 70 | 1019.4 |
| 20260905151516 | 65 | 0 | 2.0 | 8.0 | 0.00 | 0.00 | 0.00 | 70 | 1019.3 |
| 20260905150537 | 65 | 0 | 1.0 | 5.0 | 0.00 | 0.00 | 0.00 | 71 | 1019.4 |
| 20260905145516 | 65 | 0 | 2.0 | 5.0 | 0.00 | 0.00 | 0.00 | 71 | 1019.2 |
| 20260905144516 | 64 | 0 | 1.0 | 4.0 | 0.00 | 0.00 | 0.00 | 71 | 1019.4 |
| 20260905143516 | 64 | 0 | 2.0 | 5.0 | 0.00 | 0.00 | 0.00 | 71 | 1019.5 |
| 20260905142557 | 64 | 0 | 2.0 | 6.0 | 0.00 | 0.00 | 0.00 | 70 | 1019.4 |
| 20260905141516 | 64 | 0 | 1.0 | 5.0 | 0.00 | 0.00 | 0.00 | 71 | 1019.4 |
| 20260905140516 | 64 | 0 | 1.0 | 5.0 | 0.00 | 0.00 | 0.00 | 71 | 1019.3 |
| 20260905135516 | 64 | 0 | 2.0 | 8.0 | 0.00 | 0.00 | 0.00 | 71 | 1019.3 |
| 20260905134516 | 64 | 0 | 2.0 | 6.0 | 0.00 | 0.00 | 0.00 | 71 | 1019.2 |
| 20260905133516 | 64 | 0 | 2.0 | 5.0 | 0.00 | 0.00 | 0.00 | 71 | 1018.8 |
| 20260905132536 | 64 | 0 | 2.0 | 5.0 | 0.00 | 0.00 | 0.00 | 72 | 1018.8 |
| 20260905131516 | 64 | 0 | 2.0 | 6.0 | 0.00 | 0.00 | 0.00 | 72 | 1018.9 |
| 20260905130516 | 64 | 0 | 3.0 | 9.0 | 0.00 | 0.00 | 0.00 | 72 | 1018.8 |
| 20260905125516 | 64 | 0 | 2.0 | 8.0 | 0.00 | 0.00 | 0.00 | 72 | 1018.6 |
| 20260905124516 | 64 | 0 | 2.0 | 8.0 | 0.00 | 0.00 | 0.00 | 72 | 1018.2 |
| 20260905123516 | 63 | 0 | 3.0 | 9.0 | 0.00 | 0.00 | 0.00 | 72 | 1018.0 |
| 20260905122516 | 63 | 0 | 3.0 | 5.0 | 0.00 | 0.00 | 0.00 | 73 | 1018.0 |
| 20260905121516 | 63 | 0 | 2.0 | 10.0 | 0.00 | 0.00 | 0.00 | 73 | 1017.9 |
| 20260905120516 | 63 | 0 | 2.0 | 5.0 | 0.00 | 0.00 | 0.00 | 73 | 1017.8 |
| 20260905115516 | 63 | 0 | 2.0 | 6.0 | 0.00 | 0.00 | 0.00 | 73 | 1017.5 |
| 20260905114516 | 63 | 0 | 2.0 | 6.0 | 0.00 | 0.00 | 0.00 | 73 | 1017.3 |
| 20260905113516 | 63 | 0 | 2.0 | 6.0 | 0.00 | 0.00 | 0.00 | 73 | 1017.2 |
| 20260905112516 | 63 | 0 | 3.0 | 6.0 | 0.00 | 0.00 | 0.00 | 73 | 1017.2 |
| 20260905111516 | 63 | 0 | 2.0 | 5.0 | 0.00 | 0.00 | 0.00 | 73 | 1017.3 |
| 20260905110516 | 63 | 0 | 2.0 | 5.0 | 0.00 | 0.00 | 0.00 | 73 | 1017.3 |
| 20260905105536 | 63 | 0 | 1.0 | 5.0 | 0.00 | 0.00 | 0.00 | 73 | 1017.2 |
| 20260905104516 | 63 | 0 | 2.0 | 5.0 | 0.00 | 0.00 | 0.00 | 73 | 1017.3 |
| 20260905103516 | 63 | 0 | 2.0 | 5.0 | 0.00 | 0.00 | 0.00 | 74 | 1017.2 |
| 20260905102516 | 63 | 0 | 2.0 | 9.0 | 0.00 | 0.00 | 0.00 | 74 | 1017.2 |
| 20260905101516 | 64 | 0 | 2.0 | 5.0 | 0.00 | 0.00 | 0.00 | 74 | 1017.2 |
| 20260905100516 | 64 | 0 | 1.0 | 4.0 | 0.00 | 0.00 | 0.00 | 74 | 1017.2 |
| 20260905095536 | 64 | 0 | 1.0 | 5.0 | 0.00 | 0.00 | 0.00 | 74 | 1017.3 |
| 20260905094516 | 64 | 0 | 2.0 | 6.0 | 0.00 | 0.00 | 0.00 | 74 | 1017.4 |
| 20260905093536 | 64 | 0.0 | 3.0 | 0.00 | 0.00 | 0.00 | 74 | 1017.5 | |
| 20260905092516 | 64 | 0 | 1.0 | 5.0 | 0.00 | 0.00 | 0.00 | 74 | 1017.5 |
| 20260905091516 | 64 | 0 | 1.0 | 5.0 | 0.00 | 0.01 | 0.00 | 74 | 1017.5 |
| 20260905090516 | 63 | 0 | 1.0 | 4.0 | 0.00 | 0.01 | 0.00 | 74 | 1017.5 |
| 20260905085516 | 63 | 0 | 1.0 | 3.0 | 0.00 | 0.01 | 0.00 | 75 | 1017.5 |
| 20260905084516 | 63 | 0 | 1.0 | 4.0 | 0.00 | 0.01 | 0.00 | 75 | 1017.6 |
| 20260905083536 | 63 | 0 | 1.0 | 3.0 | 0.00 | 0.01 | 0.00 | 75 | 1017.6 |
| 20260905082516 | 63 | 0 | 1.0 | 5.0 | 0.00 | 0.02 | 0.00 | 75 | 1017.5 |
| 20260905081516 | 63 | 0 | 1.0 | 3.0 | 0.00 | 0.02 | 0.00 | 75 | 1017.5 |
| 20260905080516 | 63 | 0.0 | 2.0 | 0.00 | 0.04 | 0.00 | 75 | 1017.4 | |
| 20260905075515 | 63 | 0 | 1.0 | 5.0 | 0.00 | 0.14 | 0.00 | 75 | 1017.4 |
| 20260905074516 | 63 | 0 | 1.0 | 4.0 | 0.00 | 0.15 | 0.00 | 75 | 1017.3 |
| 20260905073515 | 63 | 0.0 | 0.0 | 0.00 | 0.17 | 0.00 | 75 | 1017.2 | |
| 20260905072535 | 64 | 0.0 | 3.0 | 0.00 | 0.19 | 0.00 | 75 | 1017.0 | |
| 20260905071516 | 63 | 0 | 2.0 | 6.0 | 0.00 | 0.20 | 0.00 | 75 | 1017.0 |
| 20260905070516 | 64 | 0 | 2.0 | 8.0 | 0.00 | 0.21 | 0.00 | 75 | 1016.9 |
| 20260905065516 | 64 | 0 | 1.0 | 5.0 | 0.00 | 0.21 | 0.00 | 75 | 1016.8 |
| 20260905064515 | 64 | 0 | 1.0 | 2.0 | 0.00 | 0.21 | 0.00 | 75 | 1016.9 |
| 20260905063516 | 64 | 0 | 1.0 | 3.0 | 0.00 | 0.21 | 0.00 | 75 | 1016.9 |
| 20260905062515 | 64 | 0.0 | 3.0 | 0.00 | 0.21 | 0.00 | 75 | 1016.8 | |
| 20260905061535 | 64 | 0 | 2.0 | 4.0 | 0.00 | 0.21 | 0.00 | 74 | 1016.8 |
| 20260905060515 | 64 | 0 | 1.0 | 5.0 | 0.00 | 0.21 | 0.00 | 74 | 1016.9 |
| 20260905055515 | 64 | 0 | 1.0 | 4.0 | 0.00 | 0.21 | 0.00 | 74 | 1017.0 |
| 20260905054535 | 64 | 0 | 2.0 | 5.0 | 0.00 | 0.21 | 0.00 | 74 | 1016.9 |
| 20260905053515 | 64 | 0 | 1.0 | 5.0 | 0.00 | 0.21 | 0.00 | 74 | 1017.0 |
| 20260905052535 | 64 | 0 | 2.0 | 5.0 | 0.00 | 0.21 | 0.00 | 74 | 1017.0 |
| 20260905051517 | 64 | 0 | 2.0 | 8.0 | 0.00 | 0.21 | 0.00 | 75 | 1016.9 |
| 20260905050517 | 64 | 0 | 1.0 | 5.0 | 0.00 | 0.21 | 0.00 | 75 | 1016.9 |
| 20260905045516 | 65 | 0 | 1.0 | 4.0 | 0.00 | 0.21 | 0.21 | 75 | 1017.0 |
| 20260905044516 | 65 | 0 | 1.0 | 4.0 | 0.00 | 0.21 | 0.21 | 75 | 1017.0 |
| 20260905043515 | 65 | 0 | 2.0 | 6.0 | 0.00 | 0.21 | 0.21 | 75 | 1016.9 |
| 20260905042536 | 64 | 0 | 1.0 | 5.0 | 0.00 | 0.21 | 0.21 | 76 | 1016.8 |
| 20260905041515 | 64 | 0 | 1.0 | 3.0 | 0.00 | 0.21 | 0.21 | 76 | 1016.9 |
| 20260905040556 | 64 | 0 | 1.0 | 3.0 | 0.00 | 0.22 | 0.21 | 77 | 1016.9 |
| 20260905035515 | 64 | 0 | 2.0 | 5.0 | 0.00 | 0.22 | 0.21 | 78 | 1016.9 |
| 20260905034616 | 64 | 0 | 1.0 | 3.0 | 0.00 | 0.22 | 0.21 | 79 | 1017.0 |
| 20260905033515 | 63 | 0 | 1.0 | 5.0 | 0.00 | 0.22 | 0.21 | 80 | 1017.0 |
| 20260905032515 | 63 | 0.0 | 1.0 | 0.00 | 0.22 | 0.21 | 80 | 1016.8 | |
| 20260905031515 | 63 | 0 | 1.0 | 3.0 | 0.00 | 0.22 | 0.21 | 80 | 1016.9 |
| 20260905030517 | 63 | 0 | 1.0 | 3.0 | 0.00 | 0.23 | 0.21 | 80 | 1017.0 |
| 20260905025518 | 63 | 0.0 | 0.0 | 0.00 | 0.25 | 0.21 | 80 | 1017.0 | |
| 20260905024517 | 64 | 0.0 | 0.0 | 0.00 | 0.31 | 0.21 | 80 | 1017.0 | |
| 20260905023517 | 64 | 0.0 | 0.0 | 0.00 | 0.33 | 0.21 | 80 | 1017.0 | |
| 20260905022517 | 64 | 0.0 | 0.0 | 0.00 | 0.34 | 0.21 | 79 | 1017.0 | |
| 20260905021517 | 64 | 0.0 | 2.0 | 0.00 | 0.34 | 0.21 | 79 | 1016.8 | |
| 20260905020517 | 64 | 0 | 1.0 | 3.0 | 0.00 | 0.34 | 0.21 | 79 | 1016.9 |
| 20260905015517 | 64 | 0 | 1.0 | 4.0 | 0.00 | 0.34 | 0.21 | 79 | 1016.9 |
| 20260905014517 | 64 | 0 | 1.0 | 5.0 | 0.00 | 0.38 | 0.21 | 79 | 1016.9 |
| 20260905013517 | 64 | 0 | 1.0 | 3.0 | 0.00 | 0.38 | 0.21 | 80 | 1016.7 |
| 20260905012537 | 64 | 0 | 1.0 | 3.0 | 0.00 | 0.38 | 0.21 | 80 | 1016.7 |
| 20260905011517 | 64 | 0 | 1.0 | 4.0 | 0.00 | 0.38 | 0.21 | 80 | 1016.4 |
| 20260905010515 | 64 | 0 | 1.0 | 3.0 | 0.00 | 0.38 | 0.21 | 80 | 1016.4 |
| 20260905005517 | 64 | 0 | 1.0 | 4.0 | 0.00 | 0.38 | 0.21 | 80 | 1016.5 |
| 20260905004537 | 64 | 0 | 1.0 | 4.0 | 0.00 | 0.38 | 0.21 | 80 | 1016.4 |
| 20260905003517 | 63 | 0 | 2.0 | 4.0 | 0.00 | 0.38 | 0.21 | 80 | 1016.4 |
| 20260905002517 | 63 | 0 | 2.0 | 9.0 | 0.00 | 0.38 | 0.21 | 80 | 1016.2 |
| 20260905001517 | 63 | 0 | 3.0 | 10.0 | 0.00 | 0.38 | 0.21 | 81 | 1016.3 |
| 20260905000537 | 63 | 0 | 2.0 | 8.0 | 0.00 | 0.38 | 0.21 | 81 | 1016.2 |
| 20260904235517 | 63 | 0 | 3.0 | 9.0 | 0.00 | 0.38 | 0.21 | 81 | 1016.2 |
| 20260904234537 | 63 | 0 | 1.0 | 4.0 | 0.00 | 0.38 | 0.21 | 81 | 1016.2 |
| 20260904233517 | 63 | 0 | 2.0 | 5.0 | 0.00 | 0.38 | 0.21 | 81 | 1016.2 |
| 20260904232517 | 63 | 0 | 2.0 | 6.0 | 0.00 | 0.38 | 0.21 | 81 | 1016.2 |
| 20260904231537 | 63 | 0 | 1.0 | 4.0 | 0.00 | 0.38 | 0.21 | 81 | 1016.3 |
| 20260904230517 | 63 | 0 | 2.0 | 10.0 | 0.00 | 0.38 | 0.21 | 81 | 1016.4 |
| 20260904225517 | 63 | 0 | 1.0 | 6.0 | 0.00 | 0.38 | 0.21 | 81 | 1016.2 |